����������;��������(kVARh)
2015-09-07 00:00;1,4
2015-09-07 00:15;0
2015-09-07 00:30;0
2015-09-07 00:45;0
2015-09-07 01:00;0
2015-09-07 01:15;0
2015-09-07 01:30;0
2015-09-07 01:45;0
2015-09-07 02:00;0
2015-09-07 02:15;0,05
2015-09-07 02:30;0,2
2015-09-07 02:45;1,05
2015-09-07 03:00;1,8
2015-09-07 03:15;2,95
2015-09-07 03:30;2,95
2015-09-07 03:45;3,3
2015-09-07 04:00;4,2
2015-09-07 04:15;9,85
2015-09-07 04:30;10,15
2015-09-07 04:45;10,2
2015-09-07 05:00;10,25
2015-09-07 05:15;10,3
2015-09-07 05:30;9
2015-09-07 05:45;9,15
2015-09-07 06:00;11,15
2015-09-07 06:15;11,5
2015-09-07 06:30;11,15
2015-09-07 06:45;13,45
2015-09-07 07:00;16,55
2015-09-07 07:15;16,2
2015-09-07 07:30;13,9
2015-09-07 07:45;35,05
2015-09-07 08:00;36,25
2015-09-07 08:15;36,4
2015-09-07 08:30;36,8
2015-09-07 08:45;36,95
2015-09-07 09:00;33,7
2015-09-07 09:15;37,8
2015-09-07 09:30;43,5
2015-09-07 09:45;47
2015-09-07 10:00;56,6
2015-09-07 10:15;95,65
2015-09-07 10:30;83,45
2015-09-07 10:45;74,4
2015-09-07 11:00;80,5
2015-09-07 11:15;78,5
2015-09-07 11:30;73,7
2015-09-07 11:45;70,6
2015-09-07 12:00;69,45
2015-09-07 12:15;73,1
2015-09-07 12:30;76,05
2015-09-07 12:45;79,85
2015-09-07 13:00;86,7
2015-09-07 13:15;86,25
2015-09-07 13:30;92,15
2015-09-07 13:45;85,65
2015-09-07 14:00;77,55
2015-09-07 14:15;80,85
2015-09-07 14:30;74
2015-09-07 14:45;64,3
2015-09-07 15:00;69,35
2015-09-07 15:15;61,3
2015-09-07 15:30;60,55
2015-09-07 15:45;50,9
2015-09-07 16:00;68,4
2015-09-07 16:15;63,35
2015-09-07 16:30;61,35
2015-09-07 16:45;56,5
2015-09-07 17:00;55,7
2015-09-07 17:15;54
2015-09-07 17:30;61,95
2015-09-07 17:45;63,05
2015-09-07 18:00;50,1
2015-09-07 18:15;49,3
2015-09-07 18:30;45,1
2015-09-07 18:45;40,9
2015-09-07 19:00;39,9
2015-09-07 19:15;39,45
2015-09-07 19:30;34,15
2015-09-07 19:45;33,3
2015-09-07 20:00;26,1
2015-09-07 20:15;25,4
2015-09-07 20:30;23,85
2015-09-07 20:45;10,25
2015-09-07 21:00;8,8
2015-09-07 21:15;8,5
2015-09-07 21:30;7,85
2015-09-07 21:45;5,95
2015-09-07 22:00;7,45
2015-09-07 22:15;2,2
2015-09-07 22:30;1,3
2015-09-07 22:45;0,55
2015-09-07 23:00;1,6
2015-09-07 23:15;2,65
2015-09-07 23:30;4,05
2015-09-07 23:45;7,5
2015-09-08 00:00;11
2015-09-08 00:15;8,2
2015-09-08 00:30;12,75
2015-09-08 00:45;11,85
2015-09-08 01:00;0,7
2015-09-08 01:15;0
2015-09-08 01:30;0
2015-09-08 01:45;0
2015-09-08 02:00;0
2015-09-08 02:15;0
2015-09-08 02:30;0
2015-09-08 02:45;0
2015-09-08 03:00;0
2015-09-08 03:15;0
2015-09-08 03:30;0
2015-09-08 03:45;0
2015-09-08 04:00;0,25
2015-09-08 04:15;0,55
2015-09-08 04:30;0,05
2015-09-08 04:45;0,4
2015-09-08 05:00;2,35
2015-09-08 05:15;1,35
2015-09-08 05:30;3,55
2015-09-08 05:45;0,1
2015-09-08 06:00;1
2015-09-08 06:15;0,55
2015-09-08 06:30;0,75
2015-09-08 06:45;0,5
2015-09-08 07:00;1,1
2015-09-08 07:15;2,2
2015-09-08 07:30;3,6
2015-09-08 07:45;25,9
2015-09-08 08:00;47,15
2015-09-08 08:15;41,15
2015-09-08 08:30;44,7
2015-09-08 08:45;42
2015-09-08 09:00;35,2
2015-09-08 09:15;40,85
2015-09-08 09:30;47,5
2015-09-08 09:45;49,65
2015-09-08 10:00;63,3
2015-09-08 10:15;63,55
2015-09-08 10:30;70,95
2015-09-08 10:45;69,1
2015-09-08 11:00;67,25
2015-09-08 11:15;77
2015-09-08 11:30;71,55
2015-09-08 11:45;76,7
2015-09-08 12:00;81,65
2015-09-08 12:15;75,4
2015-09-08 12:30;70,1
2015-09-08 12:45;79,1
2015-09-08 13:00;82,1
2015-09-08 13:15;74,65
2015-09-08 13:30;75,7
2015-09-08 13:45;75,3
2015-09-08 14:00;63,95
2015-09-08 14:15;70,15
2015-09-08 14:30;70,45
2015-09-08 14:45;70,95
2015-09-08 15:00;79,65
2015-09-08 15:15;75,2
2015-09-08 15:30;64,85
2015-09-08 15:45;62,25
2015-09-08 16:00;60,65
2015-09-08 16:15;60,1
2015-09-08 16:30;52,45
2015-09-08 16:45;51,55
2015-09-08 17:00;52,65
2015-09-08 17:15;49,4
2015-09-08 17:30;49,05
2015-09-08 17:45;48,35
2015-09-08 18:00;45,5
2015-09-08 18:15;48,15
2015-09-08 18:30;41,45
2015-09-08 18:45;40,05
2015-09-08 19:00;42,6
2015-09-08 19:15;36,55
2015-09-08 19:30;37,95
2015-09-08 19:45;32,05
2015-09-08 20:00;29,85
2015-09-08 20:15;33,3
2015-09-08 20:30;26,35
2015-09-08 20:45;18,35
2015-09-08 21:00;23,65
2015-09-08 21:15;18,5
2015-09-08 21:30;11,35
2015-09-08 21:45;10,7
2015-09-08 22:00;12,05
2015-09-08 22:15;14,3
2015-09-08 22:30;15,85
2015-09-08 22:45;8,35
2015-09-08 23:00;0,55
2015-09-08 23:15;1,2
2015-09-08 23:30;1,85
2015-09-08 23:45;0,85
2015-09-09 00:00;2,5
2015-09-09 00:15;0,1
2015-09-09 00:30;0,6
2015-09-09 00:45;0,55
2015-09-09 01:00;0,3
2015-09-09 01:15;0
2015-09-09 01:30;0
2015-09-09 01:45;0
2015-09-09 02:00;0,2
2015-09-09 02:15;0,05
2015-09-09 02:30;0,6
2015-09-09 02:45;0,7
2015-09-09 03:00;1,6
2015-09-09 03:15;1,9
2015-09-09 03:30;2,6
2015-09-09 03:45;3,05
2015-09-09 04:00;4
2015-09-09 04:15;5,4
2015-09-09 04:30;4,5
2015-09-09 04:45;1,95
2015-09-09 05:00;4,6
2015-09-09 05:15;17,2
2015-09-09 05:30;15,6
2015-09-09 05:45;14,6
2015-09-09 06:00;14,7
2015-09-09 06:15;15,9
2015-09-09 06:30;13,7
2015-09-09 06:45;12,75
2015-09-09 07:00;12,8
2015-09-09 07:15;11,65
2015-09-09 07:30;10,45
2015-09-09 07:45;39,6
2015-09-09 08:00;54,45
2015-09-09 08:15;44,75
2015-09-09 08:30;44,2
2015-09-09 08:45;33,25
2015-09-09 09:00;29,7
2015-09-09 09:15;36,75
2015-09-09 09:30;41,8
2015-09-09 09:45;40,75
2015-09-09 10:00;56,55
2015-09-09 10:15;50,65
2015-09-09 10:30;55,35
2015-09-09 10:45;58,5
2015-09-09 11:00;71,9
2015-09-09 11:15;68,55
2015-09-09 11:30;65,1
2015-09-09 11:45;62,75
2015-09-09 12:00;62,95
2015-09-09 12:15;67,7
2015-09-09 12:30;66,15
2015-09-09 12:45;66,35
2015-09-09 13:00;75,4
2015-09-09 13:15;71,85
2015-09-09 13:30;115,4
2015-09-09 13:45;125,8
2015-09-09 14:00;101,05
2015-09-09 14:15;84,5
2015-09-09 14:30;90,3
2015-09-09 14:45;88,8
2015-09-09 15:00;84,85
2015-09-09 15:15;84,6
2015-09-09 15:30;79,2
2015-09-09 15:45;77,5
2015-09-09 16:00;67,95
2015-09-09 16:15;65,8
2015-09-09 16:30;77,4
2015-09-09 16:45;101,85
2015-09-09 17:00;86,9
2015-09-09 17:15;73,65
2015-09-09 17:30;74,15
2015-09-09 17:45;81,1
2015-09-09 18:00;75,25
2015-09-09 18:15;67,95
2015-09-09 18:30;65,75
2015-09-09 18:45;69,85
2015-09-09 19:00;49,55
2015-09-09 19:15;46,6
2015-09-09 19:30;38,05
2015-09-09 19:45;34,1
2015-09-09 20:00;29,3
2015-09-09 20:15;25,35
2015-09-09 20:30;25,85
2015-09-09 20:45;17,05
2015-09-09 21:00;16,25
2015-09-09 21:15;17
2015-09-09 21:30;15,25
2015-09-09 21:45;19,1
2015-09-09 22:00;19,95
2015-09-09 22:15;20,35
2015-09-09 22:30;18,7
2015-09-09 22:45;19,4
2015-09-09 23:00;16,1
2015-09-09 23:15;11,15
2015-09-09 23:30;13,65
2015-09-09 23:45;15
2015-09-10 00:00;18,05
2015-09-10 00:15;2
2015-09-10 00:30;0,1
2015-09-10 00:45;0
2015-09-10 01:00;0
2015-09-10 01:15;0
2015-09-10 01:30;0
2015-09-10 01:45;0
2015-09-10 02:00;0
2015-09-10 02:15;0
2015-09-10 02:30;0
2015-09-10 02:45;0
2015-09-10 03:00;0
2015-09-10 03:15;0
2015-09-10 03:30;0
2015-09-10 03:45;0
2015-09-10 04:00;0
2015-09-10 04:15;0
2015-09-10 04:30;0
2015-09-10 04:45;0
2015-09-10 05:00;0
2015-09-10 05:15;0
2015-09-10 05:30;2,35
2015-09-10 05:45;8,7
2015-09-10 06:00;6,5
2015-09-10 06:15;6,35
2015-09-10 06:30;6,05
2015-09-10 06:45;6,25
2015-09-10 07:00;5,35
2015-09-10 07:15;7,85
2015-09-10 07:30;10,2
2015-09-10 07:45;37,55
2015-09-10 08:00;70,45
2015-09-10 08:15;72,95
2015-09-10 08:30;61,25
2015-09-10 08:45;51,55
2015-09-10 09:00;36
2015-09-10 09:15;43,2
2015-09-10 09:30;46,7
2015-09-10 09:45;50,75
2015-09-10 10:00;65,45
2015-09-10 10:15;68,05
2015-09-10 10:30;63,45
2015-09-10 10:45;61,15
2015-09-10 11:00;65,55
2015-09-10 11:15;75,5
2015-09-10 11:30;79,1
2015-09-10 11:45;79,6
2015-09-10 12:00;80,25
2015-09-10 12:15;119,5
2015-09-10 12:30;122,35
2015-09-10 12:45;116,3
2015-09-10 13:00;97,6
2015-09-10 13:15;101,9
2015-09-10 13:30;102,95
2015-09-10 13:45;94,3
2015-09-10 14:00;97
2015-09-10 14:15;97,8
2015-09-10 14:30;88,25
2015-09-10 14:45;93,45
2015-09-10 15:00;86,45
2015-09-10 15:15;93,3
2015-09-10 15:30;120,25
2015-09-10 15:45;110,7
2015-09-10 16:00;96,95
2015-09-10 16:15;89,5
2015-09-10 16:30;86,55
2015-09-10 16:45;87,35
2015-09-10 17:00;87,05
2015-09-10 17:15;80,8
2015-09-10 17:30;80,9
2015-09-10 17:45;78,9
2015-09-10 18:00;75,95
2015-09-10 18:15;73,2
2015-09-10 18:30;65,3
2015-09-10 18:45;56,3
2015-09-10 19:00;47,5
2015-09-10 19:15;38,9
2015-09-10 19:30;38,9
2015-09-10 19:45;30,55
2015-09-10 20:00;30,8
2015-09-10 20:15;24,15
2015-09-10 20:30;18,8
2015-09-10 20:45;12,6
2015-09-10 21:00;5,65
2015-09-10 21:15;7,25
2015-09-10 21:30;2,45
2015-09-10 21:45;0,05
2015-09-10 22:00;0,25
2015-09-10 22:15;0,05
2015-09-10 22:30;0,3
2015-09-10 22:45;0,25
2015-09-10 23:00;0,2
2015-09-10 23:15;0
2015-09-10 23:30;0,15
2015-09-10 23:45;0,05
2015-09-11 00:00;2,8
2015-09-11 00:15;1,1
2015-09-11 00:30;0
2015-09-11 00:45;0
2015-09-11 01:00;0
2015-09-11 01:15;0,05
2015-09-11 01:30;0
2015-09-11 01:45;0,05
2015-09-11 02:00;0,05
2015-09-11 02:15;0,15
2015-09-11 02:30;0
2015-09-11 02:45;0
2015-09-11 03:00;0
2015-09-11 03:15;0
2015-09-11 03:30;0
2015-09-11 03:45;0
2015-09-11 04:00;0
2015-09-11 04:15;0
2015-09-11 04:30;0
2015-09-11 04:45;0
2015-09-11 05:00;0
2015-09-11 05:15;0
2015-09-11 05:30;0
2015-09-11 05:45;0
2015-09-11 06:00;0
2015-09-11 06:15;1,8
2015-09-11 06:30;3,25
2015-09-11 06:45;3,2
2015-09-11 07:00;3,35
2015-09-11 07:15;4,15
2015-09-11 07:30;7,5
2015-09-11 07:45;38,9
2015-09-11 08:00;81,1
2015-09-11 08:15;71,5
2015-09-11 08:30;66,1
2015-09-11 08:45;59
2015-09-11 09:00;56,75
2015-09-11 09:15;63,95
2015-09-11 09:30;62,85
2015-09-11 09:45;76,4
2015-09-11 10:00;71,35
2015-09-11 10:15;73
2015-09-11 10:30;80,6
2015-09-11 10:45;77,2
2015-09-11 11:00;77,5
2015-09-11 11:15;67,45
2015-09-11 11:30;60,15
2015-09-11 11:45;58,25
2015-09-11 12:00;65,5
2015-09-11 12:15;77,2
2015-09-11 12:30;71,65
2015-09-11 12:45;68
2015-09-11 13:00;75,2
2015-09-11 13:15;77,8
2015-09-11 13:30;75,35
2015-09-11 13:45;69,5
2015-09-11 14:00;69,4
2015-09-11 14:15;63,15
2015-09-11 14:30;62,65
2015-09-11 14:45;69
2015-09-11 15:00;64,85
2015-09-11 15:15;58,05
2015-09-11 15:30;63,8
2015-09-11 15:45;60,2
2015-09-11 16:00;68,05
2015-09-11 16:15;65
2015-09-11 16:30;51,35
2015-09-11 16:45;63,85
2015-09-11 17:00;55,7
2015-09-11 17:15;51,1
2015-09-11 17:30;54,65
2015-09-11 17:45;54,8
2015-09-11 18:00;50,4
2015-09-11 18:15;43,85
2015-09-11 18:30;39,95
2015-09-11 18:45;36,5
2015-09-11 19:00;42,85
2015-09-11 19:15;33,25
2015-09-11 19:30;33,1
2015-09-11 19:45;23,15
2015-09-11 20:00;17,35
2015-09-11 20:15;15,65
2015-09-11 20:30;15,7
2015-09-11 20:45;1,3
2015-09-11 21:00;0,05
2015-09-11 21:15;0
2015-09-11 21:30;0,65
2015-09-11 21:45;0
2015-09-11 22:00;0
2015-09-11 22:15;0
2015-09-11 22:30;0
2015-09-11 22:45;0
2015-09-11 23:00;0
2015-09-11 23:15;0
2015-09-11 23:30;0
2015-09-11 23:45;0
2015-09-12 00:00;0
2015-09-12 00:15;0
2015-09-12 00:30;0
2015-09-12 00:45;0
2015-09-12 01:00;0
2015-09-12 01:15;0
2015-09-12 01:30;0
2015-09-12 01:45;0
2015-09-12 02:00;0
2015-09-12 02:15;0
2015-09-12 02:30;0
2015-09-12 02:45;0
2015-09-12 03:00;0
2015-09-12 03:15;0
2015-09-12 03:30;0
2015-09-12 03:45;0
2015-09-12 04:00;0
2015-09-12 04:15;0
2015-09-12 04:30;0
2015-09-12 04:45;0
2015-09-12 05:00;0
2015-09-12 05:15;0
2015-09-12 05:30;0
2015-09-12 05:45;0
2015-09-12 06:00;0
2015-09-12 06:15;0
2015-09-12 06:30;0
2015-09-12 06:45;0
2015-09-12 07:00;0
2015-09-12 07:15;0
2015-09-12 07:30;0
2015-09-12 07:45;6,4
2015-09-12 08:00;3,85
2015-09-12 08:15;0,3
2015-09-12 08:30;0
2015-09-12 08:45;0
2015-09-12 09:00;0
2015-09-12 09:15;0,2
2015-09-12 09:30;1,15
2015-09-12 09:45;0,3
2015-09-12 10:00;0
2015-09-12 10:15;1,3
2015-09-12 10:30;6,25
2015-09-12 10:45;13,5
2015-09-12 11:00;13,35
2015-09-12 11:15;11,2
2015-09-12 11:30;4,3
2015-09-12 11:45;9,15
2015-09-12 12:00;13,2
2015-09-12 12:15;10,15
2015-09-12 12:30;6,85
2015-09-12 12:45;4,6
2015-09-12 13:00;6,15
2015-09-12 13:15;3,75
2015-09-12 13:30;1,85
2015-09-12 13:45;2,7
2015-09-12 14:00;2,65
2015-09-12 14:15;1,5
2015-09-12 14:30;1
2015-09-12 14:45;2,65
2015-09-12 15:00;3,5
2015-09-12 15:15;6,65
2015-09-12 15:30;4,65
2015-09-12 15:45;5,25
2015-09-12 16:00;7,35
2015-09-12 16:15;9,6
2015-09-12 16:30;10,7
2015-09-12 16:45;8,5
2015-09-12 17:00;8,3
2015-09-12 17:15;12,3
2015-09-12 17:30;11,95
2015-09-12 17:45;12,85
2015-09-12 18:00;14,5
2015-09-12 18:15;12,05
2015-09-12 18:30;12,9
2015-09-12 18:45;10
2015-09-12 19:00;8,65
2015-09-12 19:15;9,9
2015-09-12 19:30;9,65
2015-09-12 19:45;8,45
2015-09-12 20:00;9,25
2015-09-12 20:15;6,65
2015-09-12 20:30;10,5
2015-09-12 20:45;3,9
2015-09-12 21:00;4,65
2015-09-12 21:15;3,05
2015-09-12 21:30;0,25
2015-09-12 21:45;0,05
2015-09-12 22:00;0,05
2015-09-12 22:15;0,75
2015-09-12 22:30;1,4
2015-09-12 22:45;2,7
2015-09-12 23:00;2,3
2015-09-12 23:15;3,3
2015-09-12 23:30;5,7
2015-09-12 23:45;0
2015-09-13 00:00;0,1
2015-09-13 00:15;0
2015-09-13 00:30;0
2015-09-13 00:45;0
2015-09-13 01:00;0
2015-09-13 01:15;0
2015-09-13 01:30;0
2015-09-13 01:45;0
2015-09-13 02:00;0
2015-09-13 02:15;0
2015-09-13 02:30;0
2015-09-13 02:45;0
2015-09-13 03:00;0
2015-09-13 03:15;0
2015-09-13 03:30;0
2015-09-13 03:45;0
2015-09-13 04:00;0
2015-09-13 04:15;0
2015-09-13 04:30;0
2015-09-13 04:45;0
2015-09-13 05:00;0
2015-09-13 05:15;0
2015-09-13 05:30;0
2015-09-13 05:45;0
2015-09-13 06:00;0
2015-09-13 06:15;0
2015-09-13 06:30;0
2015-09-13 06:45;0
2015-09-13 07:00;0
2015-09-13 07:15;0
2015-09-13 07:30;0
2015-09-13 07:45;0
2015-09-13 08:00;0
2015-09-13 08:15;0
2015-09-13 08:30;0
2015-09-13 08:45;0
2015-09-13 09:00;0
2015-09-13 09:15;0
2015-09-13 09:30;0
2015-09-13 09:45;0
2015-09-13 10:00;0
2015-09-13 10:15;0
2015-09-13 10:30;0
2015-09-13 10:45;0
2015-09-13 11:00;0
2015-09-13 11:15;0
2015-09-13 11:30;0
2015-09-13 11:45;0
2015-09-13 12:00;0
2015-09-13 12:15;0
2015-09-13 12:30;0
2015-09-13 12:45;0
2015-09-13 13:00;0
2015-09-13 13:15;0
2015-09-13 13:30;0
2015-09-13 13:45;0
2015-09-13 14:00;0
2015-09-13 14:15;0
2015-09-13 14:30;0
2015-09-13 14:45;0,05
2015-09-13 15:00;0
2015-09-13 15:15;1,85
2015-09-13 15:30;0,85
2015-09-13 15:45;0,45
2015-09-13 16:00;0,1
2015-09-13 16:15;0,1
2015-09-13 16:30;0,15
2015-09-13 16:45;0
2015-09-13 17:00;0,5
2015-09-13 17:15;0
2015-09-13 17:30;0,35
2015-09-13 17:45;0,15
2015-09-13 18:00;0,15
2015-09-13 18:15;0,1
2015-09-13 18:30;0
2015-09-13 18:45;0
2015-09-13 19:00;0
2015-09-13 19:15;0,05
2015-09-13 19:30;0,4
2015-09-13 19:45;0,3
2015-09-13 20:00;0,95
2015-09-13 20:15;2,7
2015-09-13 20:30;2,45
2015-09-13 20:45;0,65
2015-09-13 21:00;0,6
2015-09-13 21:15;0,6
2015-09-13 21:30;0,4
2015-09-13 21:45;0
2015-09-13 22:00;0,05
2015-09-13 22:15;0
2015-09-13 22:30;0
2015-09-13 22:45;0
2015-09-13 23:00;0,35
2015-09-13 23:15;0,15
2015-09-13 23:30;0,2
2015-09-13 23:45;0,9

